Temp
3 3 3 3 3 3 3 2 2 2 2 2 3 3 3 3 3 3 2 2 2 2 3 3 3 3 3 3 2 2 1 1 1 1 1 1 1 1 1 1 1 2
3 3 3 3 3 3 3 2 2 2 2 2 3 3 3 3 2 2 2 2 2 2 3 3 3 3 3 3 2 1 1 1 1 1 1 1 1 1 1 1 1 1
3 3 3 3 3 3 2 2 2 2 2 2 3 3 3 2 2 2 2 2 2 2 3 3 3 3 3 2 2 1 1 1 1 1 1 1 1 1 1 1 1 1
3 3 3 3 3 3 2 2 2 2 2 2 3 3 3 2 2 2 2 2 2 2 3 3 3 3 3 2 2 1 1 1 1 1 1 1 0 0 1 1 1 1
3 3 3 3 3 2 2 2 2 2 2 2 2 3 3 2 2 2 2 2 2 2 3 3 3 3 3 2 2 1 1 1 1 1 1 1 0 0 1 1 1 1
3 3 3 3 3 2 2 2 2 2 2 2 2 2 2 2 2 2 2 2 2 2 3 3 3 3 2 2 2 2 1 1 1 1 1 1 1 1 1 1 1 1
3 2 2 2 2 2 2 2 2 2 2 2 2 2 2 2 2 2 2 2 2 3 3 3 3 3 2 2 2 2 1 1 1 1 1 1 1 1 1 1 1 1
2 2 2 2 2 2 2 2 2 2 2 2 2 2 2 2 2 2 2 2 2 3 3 3 3 3 2 2 2 2 1 1 1 1 1 1 1 1 1 1 1 1
2 2 2 2 2 1 1 1 1 2 2 2 2 2 2 2 2 2 2 2 3 3 3 3 3 3 3 2 2 2 2 2 1 1 1 1 1 1 1 1 1 1
2 2 2 2 1 1 1 1 1 1 1 1 1 2 2 2 2 2 2 2 3 3 3 3 3 3 3 2 2 2 2 2 2 1 1 1 1 1 1 1 1 1
2 2 1 1 1 1 1 1 1 1 1 1 1 1 2 2 2 2 2 2 3 3 3 3 3 3 3 2 2 2 2 2 2 2 2 2 2 2 2 1 1 1
2 2 1 1 1 1 1 1 1 1 1 1 1 1 1 2 2 2 2 2 2 2 2 2 2 2 2 2 2 2 2 2 2 2 2 2 2 2 2 2 1 1
2 2 1 1 1 1 1 1 1 1 1 1 1 1 1 2 2 2 2 2 2 2 2 2 2 2 2 2 2 2 2 2 2 2 2 2 2 2 2 1 1 1
2 1 1 1 1 1 1 1 1 0 0 0 1 1 1 1 2 2 2 2 2 2 2 2 2 2 2 2 2 2 2 2 2 2 2 1 1 1 1 1 1 1
1 1 1 1 1 1 1 1 0 0 0 0 0 0 1 1 1 1 1 2 2 2 2 1 1 2 2 2 2 2 1 1 1 1 1 1 1 1 1 1 1 0
1 1 1 1 1 1 0 0 0 0 0 0 0 0 0 1 1 1 1 1 2 2 1 1 1 1 1 1 1 1 1 1 1 1 1 1 1 1 0 0 0 0
1 1 1 1 1 1 0 0 -0 -0 -0 0 0 0 0 0 1 1 1 1 1 1 1 1 1 1 1 1 1 1 1 1 1 1 1 1 0 0 0 -0 -0 -0
1 1 1 1 0 0 -0 -0 -0 -0 -0 -0 -0 0 0 0 1 1 1 1 1 1 1 1 1 1 1 1 1 1 1 1 1 0 0 0 0 0 -0 -0 -0 -0
0 0 0 0 0 -0 -0 -0 -0 -0 -0 -0 -0 0 0 1 1 1 1 1 1 1 1 1 1 1 1 1 1 1 1 1 0 0 0 -0 -0 -0 -0 -0 -0 -0
0 0 0 -0 -0 -0 -0 -0 -0 -0 -0 -0 -0 0 0 1 1 1 1 1 1 1 0 0 1 1 1 1 1 1 1 1 1 0 0 0 0 -0 -0 -0 -0 -0
0 0 0 -0 -0 -0 -0 -0 -0 -0 -0 -0 -0 -0 0 0 1 1 1 1 1 1 1 0 1 1 1 1 1 1 1 1 1 1 1 0 0 0 0 0 -0 -0
-0 -0 -0 -0 -1 -0 -0 -0 -0 -0 -0 -0 -0 -0 0 0 0 0 1 1 1 1 1 1 1 1 1 1 1 1 1 1 1 1 1 1 1 1 0 0 0 0
-1 -1 -1 -1 -1 -1 -1 -1 -1 -1 -0 -0 -0 -0 -0 -0 -0 -0 0 0 0 1 0 0 1 1 1 1 1 1 1 1 1 1 1 1 1 0 0 0 0 0
-1 -1 -1 -1 -1 -1 -1 -1 -1 -1 -1 -1 -1 -1 -0 -0 -0 -0 -0 -0 -0 0 0 0 0 1 1 1 1 1 1 1 1 1 1 0 0 0 0 0 0 0
-1 -1 -1 -1 -1 -1 -1 -1 -1 -1 -1 -1 -1 -1 -1 -1 -0 -0 -0 -0 -0 -0 -0 -0 0 0 0 0 1 1 1 1 1 1 0 0 0 0 0 0 0 -0
-1 -2 -2 -2 -1 -1 -1 -1 -1 -1 -1 -1 -1 -1 -1 -1 -1 -1 -1 -1 -1 -1 -0 -0 -0 -0 -0 -0 -0 -0 0 0 0 0 0 0 -0 -0 -0 -0 -0 -0
Height
3134 3136 3137 3138 3140 3141 3142 3143 3144 3145 3146 3146 3146 3146 3145 3145 3145 3145 3145 3145 3144 3144 3144 3144 3145 3145 3145 3145 3145 3145 3146 3147 3148 3150 3150 3151 3152 3152 3152 3153 3154 3156
3133 3135 3136 3137 3139 3140 3142 3143 3144 3145 3145 3146 3145 3145 3145 3144 3144 3145 3145 3145 3144 3144 3144 3144 3144 3144 3144 3144 3144 3144 3145 3146 3147 3148 3149 3150 3151 3151 3152 3152 3154 3155
3132 3134 3135 3137 3139 3140 3141 3142 3143 3144 3145 3145 3145 3145 3144 3144 3144 3144 3144 3144 3144 3144 3143 3143 3144 3144 3143 3143 3143 3144 3144 3144 3145 3147 3148 3149 3149 3150 3151 3151 3152 3154
3131 3133 3135 3137 3138 3140 3140 3141 3142 3143 3143 3144 3144 3144 3143 3143 3143 3143 3143 3143 3143 3143 3143 3143 3143 3143 3143 3142 3143 3143 3144 3144 3145 3146 3147 3148 3149 3149 3150 3151 3152 3153
3131 3133 3134 3136 3138 3139 3139 3140 3141 3141 3142 3143 3143 3143 3143 3142 3142 3142 3142 3142 3142 3142 3142 3142 3142 3142 3142 3142 3142 3143 3143 3144 3144 3145 3146 3147 3148 3149 3150 3151 3151 3152
3130 3132 3133 3135 3137 3138 3138 3139 3140 3140 3141 3141 3142 3142 3142 3141 3141 3141 3141 3141 3141 3141 3140 3140 3141 3141 3141 3142 3142 3142 3143 3143 3144 3145 3145 3146 3147 3148 3149 3150 3151 3152
3128 3130 3132 3134 3136 3137 3138 3139 3139 3139 3140 3140 3141 3141 3141 3140 3140 3140 3140 3141 3140 3140 3140 3140 3140 3140 3141 3141 3142 3142 3143 3143 3144 3144 3145 3145 3147 3148 3148 3149 3151 3151
3127 3129 3131 3133 3135 3136 3137 3138 3138 3138 3138 3139 3140 3140 3140 3140 3140 3140 3140 3140 3140 3140 3140 3140 3140 3140 3141 3141 3141 3142 3142 3143 3143 3144 3144 3145 3146 3147 3148 3149 3150 3151
3125 3127 3129 3131 3133 3135 3136 3136 3136 3137 3137 3138 3138 3139 3139 3139 3139 3139 3139 3139 3139 3139 3140 3140 3140 3140 3140 3141 3141 3141 3142 3142 3143 3143 3144 3145 3145 3146 3147 3148 3149 3150
3124 3126 3128 3129 3131 3133 3134 3134 3135 3135 3136 3137 3137 3138 3138 3138 3138 3138 3138 3138 3138 3138 3139 3139 3139 3140 3140 3141 3141 3141 3142 3142 3142 3143 3143 3144 3145 3146 3147 3148 3149 3150
3123 3124 3126 3128 3129 3131 3131 3132 3133 3134 3134 3135 3136 3137 3137 3137 3137 3137 3137 3137 3137 3138 3138 3139 3139 3139 3140 3140 3141 3141 3141 3142 3142 3142 3143 3144 3145 3145 3146 3147 3148 3149
3121 3123 3124 3125 3127 3128 3129 3129 3130 3132 3133 3133 3134 3135 3136 3136 3136 3136 3136 3136 3137 3137 3138 3138 3138 3139 3139 3140 3141 3141 3141 3141 3142 3142 3143 3144 3144 3145 3146 3147 3148 3149
3119 3120 3121 3122 3124 3125 3126 3127 3128 3130 3131 3132 3133 3134 3135 3135 3135 3136 3136 3136 3136 3137 3137 3138 3138 3138 3139 3139 3140 3141 3141 3141 3142 3142 3143 3143 3144 3145 3146 3147 3148 3149
3117 3117 3118 3120 3122 3123 3125 3126 3127 3128 3129 3130 3132 3133 3133 3134 3134 3135 3135 3135 3136 3136 3137 3137 3137 3138 3138 3139 3139 3140 3141 3141 3141 3142 3142 3143 3144 3145 3146 3147 3148 3148
3114 3115 3116 3118 3119 3120 3122 3123 3124 3125 3127 3129 3131 3132 3132 3133 3133 3134 3134 3134 3135 3136 3136 3137 3137 3137 3138 3138 3139 3139 3140 3140 3141 3141 3142 3142 3143 3144 3145 3146 3147 3148
3112 3113 3114 3115 3116 3117 3120 3121 3121 3123 3125 3127 3129 3130 3131 3132 3132 3133 3133 3133 3134 3135 3136 3136 3136 3137 3137 3137 3138 3138 3139 3139 3140 3141 3141 3142 3142 3143 3144 3145 3146 3147
3110 3110 3112 3113 3114 3116 3118 3119 3120 3122 3123 3125 3127 3128 3130 3130 3131 3131 3132 3133 3133 3134 3135 3135 3135 3136 3136 3136 3137 3137 3137 3138 3138 3139 3140 3141 3141 3142 3142 3143 3144 3145
3108 3109 3111 3112 3113 3114 3116 3117 3119 3120 3122 3124 3125 3127 3128 3129 3129 3130 3131 3132 3133 3133 3134 3134 3134 3134 3134 3135 3135 3135 3136 3136 3137 3138 3138 3139 3140 3141 3141 3142 3142 3143
3107 3108 3110 3111 3112 3113 3115 3116 3118 3119 3121 3122 3124 3125 3126 3127 3128 3129 3130 3130 3131 3132 3132 3133 3133 3133 3133 3133 3133 3134 3134 3135 3135 3136 3137 3138 3138 3139 3140 3140 3141 3142
3105 3107 3108 3110 3111 3112 3114 3115 3117 3118 3120 3121 3123 3124 3125 3126 3127 3128 3128 3129 3130 3130 3130 3131 3131 3131 3132 3132 3132 3133 3133 3134 3134 3135 3136 3136 3137 3138 3138 3139 3140 3140
3104 3105 3107 3108 3110 3111 3113 3114 3115 3117 3119 3120 3122 3123 3124 3125 3125 3126 3127 3127 3128 3128 3129 3129 3129 3130 3130 3131 3131 3131 3132 3133 3133 3134 3135 3135 3136 3136 3137 3137 3138 3138
3103 3104 3105 3107 3108 3110 3111 3113 3114 3116 3117 3119 3120 3121 3122 3123 3123 3124 3125 3125 3126 3126 3127 3127 3127 3128 3128 3128 3129 3129 3130 3130 3131 3132 3132 3133 3134 3135 3135 3135 3135 3135
3102 3103 3105 3106 3107 3109 3110 3112 3113 3114 3115 3117 3118 3118 3119 3120 3121 3122 3123 3123 3124 3124 3124 3125 3125 3125 3125 3126 3126 3127 3127 3127 3128 3128 3129 3130 3131 3132 3132 3132 3132 3132
3102 3103 3105 3106 3107 3108 3109 3110 3111 3112 3114 3115 3116 3116 3117 3118 3119 3120 3120 3121 3121 3122 3122 3122 3122 3122 3122 3123 3123 3123 3124 3124 3124 3125 3126 3126 3127 3128 3128 3128 3128 3129
3102 3103 3105 3106 3107 3108 3109 3110 3110 3111 3112 3113 3114 3114 3115 3116 3117 3117 3118 3118 3119 3119 3120 3120 3120 3119 3119 3119 3120 3120 3120 3121 3121 3121 3122 3122 3123 3123 3124 3124 3125 3125
3101 3102 3104 3105 3106 3107 3108 3109 3109 3109 3110 3111 3112 3112 3113 3114 3114 3115 3115 3116 3116 3116 3117 3117 3117 3117 3116 3116 3116 3116 3117 3117 3117 3117 3117 3118 3118 3118 3119 3120 3120 3121
Wind_Speed
21 18 15 13 10 9 8 7 6 6 8 10 12 13 13 11 8 6 5 5 6 6 7 7 7 7 7 8 9 10 10 10 9 9 10 11 11 11 12 11 11 11
21 18 16 14 11 10 9 8 6 6 8 10 11 12 12 10 8 5 4 4 5 6 7 7 7 7 7 8 9 10 10 10 10 10 10 10 11 12 13 13 12 12
21 19 17 14 12 11 10 9 7 7 8 9 10 12 12 11 9 6 4 5 6 6 7 8 7 7 8 8 9 10 10 10 10 9 8 8 9 10 12 13 13 13
21 20 18 15 13 12 12 10 9 9 9 9 10 12 12 12 11 8 6 6 7 7 7 8 7 7 7 8 8 9 10 10 8 7 7 7 8 9 10 11 11 11
22 21 19 18 16 15 13 11 10 10 10 9 10 12 13 13 12 10 7 7 7 8 8 8 7 6 7 7 8 9 9 9 8 7 6 6 8 9 9 10 10 9
22 22 21 20 18 16 15 14 13 12 11 10 11 12 13 13 12 10 8 7 7 8 8 8 7 6 7 7 7 8 9 9 8 6 6 7 9 9 9 9 10 9
23 23 22 21 19 17 17 17 16 15 14 13 12 12 13 14 13 11 9 8 8 8 8 8 7 7 7 8 8 9 9 9 8 6 6 7 8 9 9 9 9 9
24 23 23 22 19 18 18 19 19 18 17 16 15 14 14 14 13 12 10 8 8 8 8 8 8 8 8 8 8 9 9 9 8 7 7 8 9 9 10 10 10 10
25 24 23 22 20 18 19 20 20 20 19 18 17 15 15 15 14 12 10 9 8 8 9 8 9 9 9 9 9 9 10 10 10 9 9 9 10 11 11 11 11 11
26 25 24 23 22 20 20 22 21 20 19 18 17 16 16 15 14 12 11 10 9 9 9 9 10 10 9 9 10 10 11 11 11 10 10 11 11 11 12 13 13 13
26 26 25 25 24 23 24 24 23 21 20 18 17 17 17 16 14 12 10 9 9 9 9 9 10 10 9 9 9 10 10 10 10 10 10 10 10 10 11 11 12 13
26 27 27 27 27 27 26 26 25 23 21 20 18 17 17 16 14 12 10 9 9 9 9 8 9 9 9 8 9 9 10 9 9 9 9 9 9 8 8 9 10 12
26 27 28 29 30 30 28 28 28 25 23 21 19 18 17 16 15 12 10 9 9 9 8 8 9 9 9 9 9 9 9 8 8 7 7 8 8 8 8 8 9 11
25 26 28 29 31 32 30 29 28 27 25 22 19 18 17 16 14 12 10 10 9 9 9 9 10 10 10 10 10 10 9 9 9 8 8 8 8 8 8 9 9 10
27 29 30 31 33 33 29 28 29 27 24 22 19 17 16 15 13 12 11 11 11 11 11 11 12 12 11 12 12 11 11 10 10 9 8 8 8 8 8 8 9 9
26 29 30 31 32 29 23 22 24 22 20 20 18 16 15 13 12 12 12 12 13 13 13 13 13 13 13 13 12 12 11 11 11 10 10 10 9 9 8 8 8 9
20 20 19 18 19 18 16 16 18 18 19 19 19 17 15 14 13 12 13 14 15 15 16 16 16 16 15 15 14 14 13 13 13 13 12 12 12 11 11 10 10 10
12 11 10 9 11 14 14 14 16 18 19 19 19 19 17 16 15 14 14 14 16 17 18 19 19 19 18 18 17 17 16 16 16 15 15 15 15 14 14 14 14 13
8 8 9 10 11 12 13 13 15 17 17 19 20 20 19 19 18 17 16 16 16 18 19 20 21 21 21 21 21 20 20 19 19 19 18 18 18 17 17 17 17 17
9 8 9 10 10 10 11 12 14 15 16 18 20 20 21 21 20 19 18 17 17 18 19 21 22 22 23 23 23 23 23 22 22 21 21 21 21 21 21 21 21 21
9 8 9 10 10 11 11 12 14 15 16 17 19 20 21 20 19 19 19 18 17 17 18 20 21 22 23 23 23 23 23 23 23 23 23 23 23 24 24 24 25 25
10 9 10 11 12 12 13 13 14 15 16 17 18 19 20 19 19 19 19 19 19 19 19 20 21 22 22 23 23 23 23 23 24 24 24 25 25 26 27 27 28 29
10 11 12 12 12 13 14 14 14 15 16 17 17 17 18 19 20 21 21 21 21 21 22 22 23 24 24 24 24 24 24 24 24 24 25 25 25 26 27 28 29 30
11 12 12 12 13 13 14 14 14 15 16 17 17 18 18 20 21 22 22 22 23 24 24 25 25 25 25 25 25 25 25 26 26 26 26 26 26 27 27 28 29 30
12 12 12 12 12 13 14 15 15 16 17 18 18 19 20 21 22 23 23 24 25 26 27 27 27 28 28 29 29 29 29 29 29 29 30 30 30 30 30 30 30 31
12 12 12 13 14 15 17 18 18 18 19 19 20 21 21 22 23 24 25 26 27 28 28 29 29 30 31 32 33 33 33 33 33 34 34 34 34 34 34 34 33 34
Wind_Direction
192 195 196 198 205 213 220 234 256 280 296 304 307 309 312 311 308 305 286 257 257 264 267 269 268 266 263 256 246 234 223 218 223 234 239 238 234 232 231 228 223 219
196 199 202 204 214 226 233 242 258 274 285 296 303 307 312 313 309 303 281 260 263 271 276 273 270 268 263 253 239 229 226 228 234 242 246 243 236 232 232 230 225 221
199 203 208 208 214 230 239 246 255 263 272 287 298 302 308 313 311 297 276 268 265 268 274 274 270 261 254 243 228 221 226 233 238 243 247 245 236 228 226 225 221 218
202 208 213 213 218 229 235 239 248 257 267 281 293 299 305 312 314 304 284 273 265 260 264 268 265 251 240 231 217 213 218 223 227 234 243 241 224 210 208 208 208 209
206 212 219 221 224 228 230 234 243 253 263 277 288 296 302 309 315 309 292 278 267 259 257 261 257 242 230 219 209 205 205 208 215 224 234 223 202 194 193 190 190 187
210 216 221 225 230 233 235 239 245 251 261 274 284 293 299 304 309 305 294 281 269 261 258 257 250 233 219 208 198 196 198 203 210 216 214 200 189 185 182 179 179 177
212 218 223 228 233 238 243 247 250 255 262 270 280 288 294 300 302 297 291 281 269 262 257 253 244 227 212 200 190 189 196 202 205 205 196 186 182 179 176 176 179 181
214 219 224 229 234 239 246 250 254 260 264 267 273 281 288 294 295 291 285 276 267 260 252 244 234 221 210 197 188 187 192 196 195 194 186 177 174 173 171 171 175 178
217 220 224 230 234 240 246 250 255 262 265 266 268 273 279 285 287 284 278 268 259 253 246 236 225 219 210 196 189 187 191 192 191 190 186 177 172 170 166 162 163 165
218 221 225 231 235 239 245 251 255 258 261 263 265 269 274 278 278 276 269 259 251 245 238 228 219 217 210 197 191 191 192 194 192 191 188 180 174 171 167 162 159 159
219 222 225 230 234 238 245 252 255 254 253 255 258 263 270 274 273 268 261 252 245 240 231 221 215 213 207 200 196 196 196 197 196 194 190 184 177 174 172 166 161 158
222 224 227 230 233 236 241 248 252 250 247 246 249 256 265 271 270 263 254 245 240 236 226 217 214 211 206 202 198 200 202 202 200 197 192 186 180 179 177 170 164 158
224 226 229 231 234 236 239 245 249 246 241 241 244 248 258 266 265 256 245 237 235 231 221 218 218 213 206 201 198 200 204 204 201 196 192 186 181 180 177 172 169 164
229 230 233 235 238 239 238 241 245 241 236 236 239 242 252 261 261 254 240 228 226 224 217 217 221 217 208 204 202 200 198 200 198 193 191 188 183 180 177 174 174 170
236 235 236 238 241 241 239 241 245 242 235 231 232 237 246 254 256 255 244 230 224 223 220 218 220 220 213 207 207 204 199 198 199 194 192 193 192 189 183 182 183 181
237 237 239 240 242 242 240 242 244 240 231 227 226 229 239 247 249 253 252 244 235 227 224 222 221 223 220 213 210 209 205 204 204 203 201 201 204 204 200 200 201 200
232 233 239 242 238 233 230 231 232 229 225 223 221 223 232 240 242 247 252 255 250 239 230 226 222 222 223 220 216 213 212 211 211 211 211 210 211 213 214 216 219 221
224 219 228 237 227 219 223 227 229 229 225 220 219 220 227 234 237 241 246 252 256 251 242 236 230 227 225 225 224 221 218 218 217 217 217 217 218 221 223 226 229 233
240 230 229 233 223 212 216 224 229 227 221 218 220 224 230 236 239 241 242 245 250 251 248 244 240 236 232 230 231 229 226 225 224 224 224 224 226 228 231 233 235 238
253 242 225 223 216 209 215 226 230 227 222 222 225 229 234 240 244 244 243 242 243 246 248 249 248 246 243 240 239 238 237 235 234 233 233 233 235 238 240 242 243 245
246 232 219 216 215 213 217 223 225 225 224 226 229 233 237 242 245 246 245 244 244 245 247 249 252 252 252 252 250 249 249 248 247 247 246 245 246 247 248 248 249 251
235 225 217 211 208 209 212 215 217 219 222 225 230 235 238 240 241 243 246 248 248 248 249 251 252 251 252 253 253 253 254 255 255 256 256 256 255 255 255 254 253 253
225 219 214 209 206 208 210 211 212 214 218 222 228 232 235 237 238 241 244 246 246 247 250 252 250 249 249 249 249 250 251 253 255 256 257 258 258 259 259 260 260 260
218 215 214 214 213 214 215 216 217 218 219 222 225 228 231 235 238 240 242 243 243 245 247 249 249 249 248 247 247 248 248 249 250 252 253 254 255 256 257 259 261 263
217 217 221 226 228 228 226 226 226 226 228 229 230 231 233 235 238 240 241 243 244 246 247 249 251 253 254 253 251 250 250 250 250 251 251 251 251 251 252 255 257 259
224 230 237 244 249 249 245 239 236 234 235 237 238 240 242 243 244 245 246 248 249 251 252 253 255 258 259 260 258 256 255 255 255 256 255 255 255 254 254 255 256 258